[[{"header":{"parameterUnit":"m.s-1","parameterCategory":1,"la1":30.2991,"la2":30.254,"lo1":-89.0895,"lo2":-89.0444,"dy":0.0017,"dx":0.0017,"nx":28,"ny":28,"refTime":"2024-07-18T21:00:00:Z","depth":0,"parameterNumber":2,"parameterNumberName":"U-component_of_WINDS"},"data":[0,0,0,0,0,0,0,0,0,0,0,0,0,0,0,0,0,0,0,0,0,0,0,0,0,0,0,0,0,0,0,0,0,0,0,0,0,0,0,0,0,0,0,0,0,0,0,0,0,0,0,0,0,0,0,0,0,0,1.3809,1.3811,0,1.3987,1.3989,1.3991,1.4012,1.401,1.4008,1.4007,1.4194,1.42,1.4207,0,0,0,0,0,0,0,0,0,0,0,0,0,1.3488,1.3494,1.3809,1.3811,1.3813,1.3987,1.3989,1.3992,1.4012,1.401,1.4008,1.4006,1.4192,1.4199,1.4207,0,0,0,0,0,0,0,0,0,0,0,0,0,1.3643,1.3496,1.3808,1.3844,1.3849,1.3986,1.399,1.3993,1.4013,1.401,1.4007,1.4005,1.4189,1.4199,1.4208,1.4324,0,0,1.4239,1.4243,0,0,0,0,0,0,0,0,1.3634,1.3655,1.3837,1.3842,1.3848,1.3975,1.3945,1.4104,1.4013,1.3951,1.4007,1.4004,1.4123,1.4138,1.4178,1.4332,1.434,1.424,1.4246,1.425,1.4253,0,0,0,0,0,0,0,1.3624,1.3647,1.3879,1.3839,1.3846,1.3852,1.3871,1.3975,1.405,1.3956,1.3958,1.3979,1.4126,1.4168,1.4182,1.4343,1.4239,1.4248,1.4254,1.4258,1.46,1.4603,0,0,0,0,0,0,1.3606,1.3638,1.3874,1.3885,1.3732,1.386,1.3882,1.3937,1.4049,1.4063,1.3981,1.3979,1.4153,1.4171,1.4189,1.4331,1.425,1.4259,1.4265,1.4597,1.4601,1.4604,0,0,0,0,0,0,1.3599,1.3627,1.3867,1.3762,1.3793,1.3869,1.393,1.3942,1.3984,1.4067,1.4081,1.401,1.4151,1.4175,1.429,1.4338,1.4264,1.4273,1.4594,1.4598,1.4603,1.4616,0,0,0,0,0,0,1.359,1.3624,1.3668,1.3763,1.3799,1.3963,1.3933,1.3947,1.4001,1.4,1.4099,1.4113,1.4151,1.4275,1.4299,1.435,1.4281,1.459,1.4596,1.4601,1.4611,1.462,1.4628,0,0,0,0,0,1.3578,1.3666,1.367,1.3698,1.3855,1.3966,1.3987,1.4028,1.4004,1.405,1.4103,1.4109,1.4328,1.4286,1.4314,1.4369,1.4587,1.4594,1.4601,1.4608,1.4619,1.4628,0,0,0,0,0,0,1.3576,1.3679,1.3685,1.3805,1.3877,1.3969,1.4028,1.4038,1.4118,1.4114,1.4163,1.4185,1.4298,1.4345,1.4296,1.4486,1.4455,1.4468,1.4451,1.4462,1.447,1.4457,1.4289,0,0,0,0,0,1.3589,1.367,1.3755,1.3854,1.3889,1.3952,1.4002,1.4027,1.4103,1.4134,1.4196,1.4271,1.4356,1.4412,1.4495,1.4618,1.464,1.4669,1.4677,1.4684,1.4695,1.4763,1.4777,1.4627,1.4627,1.4627,0,0,1.3618,1.3684,1.3732,1.3855,1.3913,1.3996,1.3977,1.4066,1.4129,1.4148,1.4259,1.4307,1.4394,1.4513,1.4568,1.4555,1.4741,1.4693,1.4697,1.4705,1.4772,1.4786,1.4798,1.4632,1.4631,1.463,0,0,1.3713,1.3771,1.3859,1.3917,1.4004,1.4046,1.4066,1.4157,1.4189,1.4302,1.4318,1.4393,1.4539,1.46,1.465,1.4766,1.4776,1.4792,1.4836,1.4902,1.4914,1.4924,1.4966,1.498,1.4803,1.4803,1.4803,0,1.3738,1.3863,1.3903,1.3991,1.4045,1.4064,1.4154,1.4209,1.432,1.4357,1.434,1.4523,1.4583,1.4716,1.4744,1.4784,1.481,1.4782,1.4908,1.492,1.493,1.4971,1.4986,1.4804,1.4804,1.4804,1.4804,0,1.389,1.3976,1.4037,1.4141,1.4202,1.429,1.4344,1.4401,1.442,1.4463,1.4577,1.4649,1.4747,1.478,1.4801,1.4917,1.4906,1.4898,1.4869,1.4945,1.4984,1.5,1.4806,1.4806,1.4805,1.4805,0,0,1.399,1.4114,1.4136,1.4183,1.4281,1.4349,1.4438,1.4532,1.458,1.4655,1.4732,1.4854,1.4847,1.4904,1.4932,1.4989,1.5077,1.4975,1.4978,1.4992,1.5209,1.5214,1.5231,1.5083,1.5086,1.5088,1.5201,0,1.4097,1.4255,1.4293,1.4429,1.4509,1.4528,1.4606,1.4674,1.4717,1.4791,1.4839,1.4924,1.4909,1.4943,1.5001,1.5054,1.5121,1.5046,1.5155,1.5159,1.5134,1.5251,1.5258,1.5361,1.5217,1.5219,1.5221,0,1.4242,1.4319,1.4463,1.4549,1.4584,1.4653,1.4742,1.4813,1.4891,1.4918,1.498,1.5001,1.5096,1.506,1.5191,1.5139,1.5186,1.5218,1.5223,1.5236,1.5195,1.5268,1.5395,1.5411,1.5245,1.5243,1.5242,0,1.4301,1.4441,1.4544,1.4584,1.4687,1.4735,1.4781,1.4856,1.491,1.4988,1.5023,1.5112,1.516,1.5228,1.5273,1.5243,1.5401,1.5369,1.5426,1.5425,1.5459,1.5457,1.5596,1.5488,1.5488,1.5487,1.5487,0,1.4416,1.4504,1.4572,1.4636,1.4734,1.4777,1.4873,1.4919,1.4986,1.5059,1.5081,1.515,1.5205,1.5281,1.5317,1.542,1.5442,1.5466,1.5475,1.5465,1.5462,1.5497,1.5491,1.5492,1.5491,1.549,1.5489,0,1.4499,1.4548,1.4663,1.475,1.4774,1.4843,1.4918,1.4981,1.5023,1.5116,1.514,1.5206,1.5297,1.5348,1.5464,1.5487,1.5602,1.5607,1.5576,1.5579,1.5634,1.5628,1.5802,1.5827,1.5701,1.5702,1.5703,0,1.457,1.4637,1.4731,1.4781,1.4827,1.4908,1.4962,1.5007,1.5063,1.5156,1.5208,1.53,1.5376,1.5521,1.558,1.5668,1.5675,1.573,1.5689,1.5676,1.5677,1.5672,1.5679,1.5737,1.5738,1.5739,1.574,0,1.469,1.4711,1.4788,1.4874,1.4938,1.5008,1.5078,1.5118,1.5174,1.5236,1.5328,1.5387,1.5503,1.5595,1.5687,1.5734,1.5747,1.5752,1.577,1.5761,1.574,1.5753,1.5596,1.5749,1.5748,1.5747,1.5747,1.5746,1.477,1.483,1.4905,1.4991,1.5047,1.5111,1.5174,1.5224,1.5301,1.5398,1.542,1.5518,1.5593,1.5718,1.5768,1.5846,1.5836,1.5862,1.5868,1.5874,1.5876,1.5727,1.5863,1.5862,1.5862,1.5862,1.5862,0,1.4891,1.494,1.5018,1.5114,1.5181,1.5185,1.5262,1.5318,1.5403,1.5472,1.5546,1.5652,1.574,1.5805,1.5895,1.5945,1.5953,1.5967,1.5965,1.5975,1.588,1.5856,1.5959,1.5959,1.5959,1.5959,1.5959,1.5959,1.4963,1.5065,1.5094,1.5225,1.5274,1.5368,1.5412,1.5471,1.5526,1.5644,1.5716,1.5758,1.5825,1.592,1.6002,1.6019,1.6051,1.6065,1.6083,1.5992,1.5982,1.5972,1.595,1.6071,1.6071,1.6172,1.6173,1.6173]},{"header":{"parameterUnit":"m.s-1","parameterCategory":1,"la1":30.2991,"la2":30.254,"lo1":-89.0895,"lo2":-89.0444,"dy":0.0017,"dx":0.0017,"nx":28,"ny":28,"refTime":"2024-07-18T21:00:00:Z","depth":0,"parameterNumber":3,"parameterNumberName":"V-component_of_WINDS"},"data":[0,0,0,0,0,0,0,0,0,0,0,0,0,0,0,0,0,0,0,0,0,0,0,0,0,0,0,0,0,0,0,0,0,0,0,0,0,0,0,0,0,0,0,0,0,0,0,0,0,0,0,0,0,0,0,0,0,0,5.3179,5.3179,0,5.3178,5.3178,5.3178,5.3106,5.3105,5.3103,5.3101,5.3099,5.3101,5.3102,0,0,0,0,0,0,0,0,0,0,0,0,0,5.3116,5.3118,5.3179,5.3179,5.3179,5.3178,5.3178,5.3178,5.3107,5.3104,5.3102,5.31,5.3098,5.31,5.3102,0,0,0,0,0,0,0,0,0,0,0,0,0,5.3132,5.3118,5.3179,5.3143,5.314,5.3178,5.3178,5.3178,5.3107,5.3104,5.3102,5.3099,5.3098,5.31,5.3103,5.3175,0,0,5.311,5.3112,0,0,0,0,0,0,0,0,5.3132,5.3135,5.3148,5.3145,5.3142,5.314,5.3155,5.3177,5.3108,5.312,5.3101,5.3098,5.3115,5.3116,5.3122,5.3175,5.3174,5.3111,5.3112,5.3113,5.3114,0,0,0,0,0,0,0,5.3131,5.3134,5.3178,5.3148,5.3145,5.3127,5.3126,5.3159,5.3133,5.3118,5.3113,5.3114,5.3112,5.3119,5.3121,5.3174,5.3111,5.3113,5.3114,5.3115,5.3287,5.329,0,0,0,0,0,0,5.3135,5.3134,5.3178,5.3178,5.313,5.313,5.3129,5.3143,5.3132,5.3128,5.3117,5.3111,5.3116,5.3118,5.3121,5.3204,5.3113,5.3116,5.3117,5.3284,5.3288,5.3291,0,0,0,0,0,0,5.3134,5.3139,5.3178,5.3155,5.3158,5.3134,5.315,5.3145,5.3151,5.3131,5.3126,5.3129,5.3114,5.3117,5.3162,5.3203,5.3117,5.3119,5.328,5.3285,5.3289,5.3373,0,0,0,0,0,0,5.3132,5.3139,5.3166,5.3156,5.316,5.322,5.3153,5.3147,5.3156,5.3149,5.3141,5.3137,5.3112,5.3159,5.3165,5.3205,5.3121,5.3277,5.3283,5.3288,5.3366,5.3379,5.3391,0,0,0,0,0,5.313,5.3189,5.3168,5.3174,5.3194,5.3223,5.3225,5.3196,5.316,5.3187,5.3174,5.3137,5.3198,5.3164,5.317,5.3212,5.3274,5.3281,5.3287,5.336,5.3377,5.3391,0,0,0,0,0,0,5.3204,5.3187,5.3164,5.3221,5.3224,5.3211,5.3244,5.3214,5.3226,5.3219,5.3182,5.3181,5.3232,5.3226,5.3188,5.3281,5.323,5.3238,5.3283,5.3298,5.3311,5.331,5.3123,0,0,0,0,0,5.3228,5.3253,5.3237,5.3289,5.3292,5.3268,5.328,5.3257,5.3258,5.3259,5.3249,5.3251,5.3271,5.3284,5.3301,5.3365,5.3362,5.3397,5.341,5.342,5.3428,5.3461,5.3477,5.3313,5.3313,5.3313,0,0,5.3276,5.3269,5.3288,5.3304,5.3304,5.3331,5.3269,5.33,5.332,5.3263,5.3305,5.3298,5.3298,5.3353,5.3377,5.335,5.3472,5.3429,5.3437,5.3439,5.347,5.3486,5.3499,5.3318,5.3317,5.3316,0,0,5.3377,5.3375,5.3419,5.342,5.342,5.3404,5.3415,5.3406,5.34,5.3442,5.34,5.3423,5.3457,5.3459,5.3464,5.3568,5.3535,5.3575,5.3639,5.3673,5.3686,5.3697,5.3734,5.3748,5.3583,5.3583,5.3583,0,5.3436,5.3476,5.3445,5.3479,5.3488,5.3439,5.3483,5.3485,5.3491,5.3498,5.3469,5.3512,5.3508,5.3563,5.3589,5.3595,5.3606,5.3575,5.3687,5.3698,5.3708,5.3742,5.3757,5.3588,5.3587,5.3587,5.3586,0,5.3548,5.3577,5.3612,5.362,5.3633,5.3672,5.3647,5.3663,5.364,5.3627,5.3671,5.3665,5.368,5.3692,5.3669,5.3744,5.3728,5.3693,5.364,5.3729,5.3761,5.3774,5.3594,5.3593,5.3591,5.359,0,0,5.3695,5.3687,5.37,5.3704,5.3701,5.3722,5.376,5.3775,5.379,5.3796,5.3826,5.3857,5.3826,5.3832,5.3809,5.3839,5.3922,5.3801,5.38,5.3823,5.4004,5.403,5.4046,5.39,5.3903,5.3905,5.4004,0,5.3793,5.3856,5.383,5.3896,5.3922,5.3876,5.3909,5.3911,5.39,5.392,5.3908,5.3931,5.3887,5.3891,5.3918,5.3906,5.3958,5.3899,5.3927,5.3929,5.3928,5.4063,5.409,5.4184,5.4017,5.4019,5.402,0,5.3915,5.3927,5.3996,5.399,5.4,5.403,5.4042,5.4062,5.4064,5.4054,5.4062,5.4033,5.4069,5.4018,5.4066,5.4027,5.4037,5.4033,5.4036,5.4037,5.398,5.4067,5.4213,5.4228,5.404,5.4038,5.4037,0,5.4015,5.4049,5.4094,5.4098,5.4093,5.4115,5.4113,5.4112,5.4124,5.4135,5.4142,5.4157,5.4166,5.4178,5.4154,5.4118,5.4206,5.4152,5.4199,5.42,5.4219,5.4218,5.4368,5.4226,5.4226,5.4226,5.4226,0,5.4126,5.417,5.4139,5.4167,5.4215,5.4185,5.4233,5.4226,5.4226,5.4252,5.4214,5.4239,5.4206,5.4227,5.4209,5.4252,5.4256,5.4249,5.4243,5.4252,5.4253,5.4258,5.4251,5.423,5.4229,5.4228,5.4227,0,5.4245,5.4227,5.4273,5.4265,5.4264,5.4299,5.4292,5.4317,5.4305,5.4338,5.4344,5.4324,5.4347,5.4325,5.4347,5.4335,5.4393,5.4378,5.4393,5.4388,5.4436,5.4432,5.4595,5.4615,5.4461,5.4462,5.4463,0,5.4318,5.435,5.4346,5.4361,5.4363,5.4387,5.4399,5.4371,5.4385,5.4391,5.4415,5.4436,5.4451,5.4491,5.4478,5.4495,5.448,5.4536,5.4482,5.4491,5.4481,5.4479,5.4482,5.4547,5.4549,5.455,5.4551,0,5.4448,5.4437,5.4456,5.4473,5.4489,5.45,5.4508,5.4523,5.4494,5.4512,5.4536,5.4548,5.4572,5.4593,5.4606,5.4604,5.4573,5.4569,5.458,5.4589,5.4597,5.4593,5.4422,5.4565,5.4563,5.4562,5.4562,5.4561,5.4545,5.4573,5.4575,5.4597,5.4601,5.461,5.4634,5.4625,5.4645,5.4663,5.4645,5.4675,5.4676,5.4691,5.4693,5.4716,5.4692,5.4709,5.4713,5.4718,5.4725,5.4594,5.4718,5.4717,5.4717,5.4717,5.4716,0,5.4673,5.4673,5.4694,5.4708,5.4726,5.4697,5.4705,5.4722,5.4749,5.4754,5.477,5.4798,5.4819,5.4808,5.4826,5.4846,5.4833,5.4852,5.485,5.485,5.4745,5.4733,5.4863,5.4863,5.4863,5.4863,5.4863,5.4863,5.4742,5.4787,5.4777,5.4824,5.4823,5.4852,5.4859,5.4868,5.4871,5.4905,5.4922,5.4916,5.4914,5.4932,5.495,5.4946,5.4954,5.4979,5.497,5.4872,5.4857,5.4844,5.4832,5.4981,5.4981,5.5073,5.5074,5.5075]}]]